This demonstration page uses our WeatherBlox Daily Observations layout. Learn more.

Left ArrowRight Arrow

39.12711, -84.51439

Hourly Observations for September 4, 2016

Temp ( °F °C ) Dew Point ( °F °C ) Humidity (%) Winds ( mph kmh ) Pressure ( in mb ) Visibility ( mi km ) Precip ( " mm )
12:53 am 00:53 Clear 57 13.9 57 13.9 100 100 Calm 30.16 1022 8 13 0.00 0.00
1:04 am 01:04 Clear with Mist and Fog 61 16 61 16 100 100 Calm 30.18 1022 3 4 0.00 0.00
1:12 am 01:12 Clear 61 16 61 16 100 100 Calm 30.18 1022 8 13 0.00 0.00
1:53 am 01:53 Clear with Mist and Fog 59 15 59 15 100 100 Calm 30.17 1022 5 8 0.00 0.00
2:07 am 02:07 Clear with Mist and Fog 58 14.4 58 14.4 100 100 Calm 30.18 1022 2 3 0.00 0.00
2:17 am 02:17 Clear with Mist and Fog 59 15 59 15 100 100 Calm 30.18 1022 3 5 0.00 0.00
2:53 am 02:53 Clear with Mist and Fog 58 14.4 58 14.4 100 100 NE 3 6 30.16 1022 5 8 0.00 0.00
3:53 am 03:53 Clear with Mist and Fog 58 14.4 58 14.4 100 100 ENE 3 6 30.17 1022 6 10 0.00 0.00
4:08 am 04:08 Clear with Mist and Fog 57 14 57 14 100 100 Calm 30.18 1022 3 4 0.00 0.00
4:17 am 04:17 Clear with Mist and Fog 57 13.9 57 13.9 100 100 Calm 30.18 1022 6 10 0.00 0.00
4:30 am 04:30 Clear with Mist and Fog 56 13.3 56 13.3 100 100 Calm 30.18 1022 1 2 0.00 0.00
4:44 am 04:44 Clear with Mist and Fog 57 14 57 14 100 100 ENE 3 6 30.18 1022 3 4 0.00 0.00
4:53 am 04:53 Clear with Mist and Fog 56 13.3 56 13.3 100 100 NE 3 6 30.18 1022 5 8 0.00 0.00
5:15 am 05:15 Clear with Mist and Fog 57 13.9 57 13.9 100 100 NE 3 6 30.18 1022 1 2 0.00 0.00
5:22 am 05:22 Clear with Fog 55 13 55 13 100 100 NNE 3 6 30.18 1022 1 1 0.00 0.00
5:34 am 05:34 Clear with Mist and Fog 55 13 55 13 100 100 Calm 30.18 1022 2 2 0.00 0.00
5:42 am 05:42 Clear with Mist and Fog 55 13 55 13 100 100 Calm 30.18 1022 4 6 0.00 0.00
5:53 am 05:53 Clear with Mist and Fog 57 13.9 57 13.9 100 100 Calm 30.19 1022 2 2 0.00 0.00
6:03 am 06:03 Clear with Mist and Fog 55 13 55 13 100 100 Calm 30.21 1023 4 6 0.00 0.00
6:46 am 06:46 Clear with Mist and Fog 55 13 55 13 100 100 NE 3 6 30.21 1023 2 3 0.00 0.00
6:53 am 06:53 Mostly Clear 56 13.3 56 13.3 100 100 NE 3 6 30.20 1023 7 11 0.00 0.00
7:53 am 07:53 Sunny 57 13.9 57 13.9 100 100 NNE 3 6 30.22 1023 7 11 0.00 0.00
8:53 am 08:53 Sunny 62 16.7 60 15.6 93 93 NNE 6 9 30.23 1024 10 16 0.00 0.00
9:53 am 09:53 Sunny 67 19.4 61 16.1 81 81 Calm 30.22 1024 10 16 0.00 0.00
10:53 am 10:53 Sunny 71 21.7 64 17.8 79 79 Calm 30.23 1024 10 16 0.00 0.00
11:53 am 11:53 Sunny 77 25 65 18.3 66 66 S 3 6 30.23 1024 10 16 0.00 0.00
12:53 pm 12:53 Sunny 79 26.1 58 14.4 49 49 S 7 11 30.21 1023 10 16 0.00 0.00
1:53 pm 13:53 Sunny 80 26.7 59 15 49 49 S 3 6 30.19 1023 10 16 0.00 0.00
2:53 pm 14:53 Sunny 81 27.2 60 15.6 49 49 E 5 7 30.18 1022 10 16 0.00 0.00
3:53 pm 15:53 Sunny 83 28.3 59 15 44 44 VRB 6 9 30.16 1021 10 16 0.00 0.00
4:53 pm 16:53 Sunny 82 27.8 60 15.6 47 47 S 7 11 30.16 1021 10 16 0.00 0.00
5:53 pm 17:53 Sunny 82 27.8 59 15 46 46 SSW 3 6 30.15 1021 10 16 0.00 0.00
6:53 pm 18:53 Sunny 76 24.4 63 17.2 64 64 VRB 3 6 30.16 1021 10 16 0.00 0.00
7:53 pm 19:53 Sunny 69 20.6 64 17.8 84 84 Calm 30.16 1022 10 16 0.00 0.00
8:53 pm 20:53 Clear 66 18.9 64 17.8 93 93 Calm 30.18 1022 10 16 0.00 0.00
9:53 pm 21:53 Clear 65 18.3 63 17.2 93 93 Calm 30.19 1023 10 16 0.00 0.00
10:53 pm 22:53 Clear 63 17.2 63 17.2 100 100 Calm 30.20 1023 10 16 0.00 0.00
11:53 pm 23:53 Clear 62 16.7 62 16.7 100 100 Calm 30.20 1023 10 16 0.00 0.00

Powered by AerisWeather